Weather observations for the past three days for
Mena, Mena Intermountain Municipal Airport
Imperial (Metric)
Date Time (cdt) Wind (mph) Vis. (mi.) Weather Sky Cond. Temperature (ºF) Relative Humidity Wind Chill (°F) Heat Index (°F) Pressure Precipitation (in)
Air Dwpt 6 hour altimeter (in) sea level (mb) 1 hr 3 hr 6 hr
Max. Min.
15 19:35 Vrbl 3 8.00 Fair CLR 86.9 72.9 63% 94 29.92 0.0
15 19:15 SW 3 8.00 Fair CLR 88 73.2 62% 96 29.93 0.0
15 18:55 Vrbl 3 8.00 Fair CLR 88.7 73.2 92.3 88.7 60% 97 29.93 0.0
15 18:35 Vrbl 5 8.00 Fair CLR 89.2 73.2 59% 98 29.93 0.0
15 18:15 Vrbl 6 8.00 Fair CLR 89.6 73.9 60% 99 29.93 0.0
15 17:55 Vrbl 5 8.00 Fair CLR 90.5 73.9 58% 100 29.94 0.0
15 17:35 Vrbl 6 8.00 Fair CLR 90.9 74.3 58% 101 29.93 0.0
15 17:15 Vrbl 7 9.00 Fair CLR 91 73.4 56% 100 29.93 0.0
15 16:55 Vrbl 7 9.00 Fair CLR 91.8 73.2 55% 101 29.94 0.0
15 16:35 Vrbl 6 9.00 Fair CLR 91.2 73.6 56% 100 29.95 0.0
15 16:15 Vrbl 6 9.00 Fair CLR 91.4 74.5 58% 102 29.95 0.0
15 15:55 Vrbl 5 8.00 Fair CLR 91.6 74.5 57% 102 29.96 0.0
15 15:35 Vrbl 5 9.00 Fair CLR 92.3 75 57% 104 29.97 0.0
15 15:15 Vrbl 7 8.00 A Few Clouds FEW370 92.1 75 57% 103 29.98 0.0
15 14:55 Vrbl 7 9.00 Fair CLR 91.4 73.8 56% 101 29.99 0.0
15 14:35 Vrbl 6 9.00 Fair CLR 91.2 74.5 58% 101 29.99 0.0
15 14:15 Vrbl 5 9.00 Fair CLR 90.9 75 60% 102 29.99 0.0
15 13:55 Vrbl 6 9.00 A Few Clouds FEW370 90.9 75.4 61% 102 30 0.0
15 13:35 Vrbl 6 9.00 A Few Clouds FEW290 90.5 75.4 61% 102 30 0.0
15 13:15 Calm 8.00 A Few Clouds FEW300 89.8 75.7 63% 101 30.01 0.0
15 12:55 Vrbl 6 9.00 A Few Clouds FEW330 89.6 74.7 89.6 77.5 62% 100 30.02 0.0
15 12:35 Vrbl 5 10.00 A Few Clouds FEW270 88.7 75 64% 99 30.02 0.0
15 12:15 Vrbl 6 9.00 Fair CLR 87.8 75.6 67% 98 30.03 0.0
15 11:55 Vrbl 7 10.00 Fair CLR 87.1 75.2 68% 97 30.04 0.0
15 11:35 Vrbl 6 10.00 A Few Clouds FEW370 87.1 75.6 69% 97 30.04 0.0
15 11:15 Vrbl 5 9.00 A Few Clouds FEW370 86 76.1 72% 96 30.05 0.0
15 10:55 W 6 9.00 Fair CLR 84.9 75.9 75% 94 30.05 0.0
15 10:35 Vrbl 7 10.00 Fair CLR 84.7 75.7 75% 94 30.06 0.0
15 10:15 Vrbl 3 9.00 Fair CLR 83.8 75.9 77% 93 30.06 0.0
15 09:55 W 8 9.00 Fair CLR 83.1 75.4 78% 91 30.07 0.0
15 09:35 SW 6 10.00 Fair CLR 82.4 75.4 79% 90 30.07 0.0
15 09:15 Vrbl 6 9.00 Fair CLR 81.7 75.2 81% 88 30.08 0.0
15 08:55 Vrbl 5 9.00 Fair CLR 81.3 75.6 83% 88 30.07 0.0
15 08:35 W 5 10.00 Fair CLR 80.6 75.2 84% 86 30.07 0.0
15 08:15 Vrbl 5 10.00 Fair CLR 80.2 75 84% 85 30.07 0.0
15 07:55 Vrbl 3 10.00 Fair CLR 79.5 75 86% 84 30.06 0.0
15 07:35 W 5 10.00 Fair CLR 79 74.8 87% 83 30.06 0.0
15 07:15 W 6 8.00 Fair CLR 78.3 74.8 89% 81 30.06 0.0
15 06:55 W 5 9.00 Fair CLR 77.2 74.7 81.9 76.1 92% 79 30.05 0.0
15 06:35 Calm 9.00 Fair CLR 76.8 74.7 93% 78 30.05 0.0
15 06:15 W 3 10.00 Fair CLR 77 74.7 93% 78 30.04 0.0
15 05:55 W 5 10.00 Fair CLR 77 74.7 93% 78 30.04 0.0
15 05:35 Calm 8.00 Fair CLR 77.2 74.8 93% 78 30.04 0.0
15 05:15 Calm 9.00 Fair CLR 76.1 74.8 96% 76 30.04 0.0
15 04:55 SW 3 9.00 Fair CLR 77.9 75 91% 80 30.04 0.0
15 04:15 W 7 10.00 Fair CLR 78.3 75.2 90% 81 30.03 0.0
15 03:55 W 5 10.00 Fair CLR 78.4 75.4 90% 82 30.03 0.0
15 03:35 W 5 10.00 Fair CLR 78.3 75.4 91% 81 30.03 0.0
15 03:15 Calm 10.00 Fair CLR 78.8 75.4 89% 82 30.04 0.0
15 02:55 W 3 9.00 Fair CLR 78.8 75.4 89% 82 30.04 0.0
15 02:35 W 3 10.00 Fair CLR 79.9 75.4 86% 85 30.04 0.0
15 02:15 Calm 9.00 Fair CLR 80.1 75.2 85% 85 30.05 0.0
15 01:55 Calm 10.00 Fair CLR 80.2 75 84% 85 30.05 0.0
15 01:35 Vrbl 3 9.00 Fair CLR 80.6 74.8 83% 86 30.05 0.0
15 01:15 Vrbl 3 10.00 Fair CLR 81.7 74.7 79% 88 30.05 0.0
15 00:55 Vrbl 3 10.00 Fair CLR 81.5 74.7 88.3 79.9 80% 88 30.05 0.0
15 00:35 Vrbl 3 10.00 Fair CLR 81.9 74.8 79% 88 30.05 0.0
15 00:15 Calm 10.00 Fair CLR 82 75.2 80% 89 30.05 0.0
14 23:55 W 3 10.00 Fair CLR 81.9 75.2 80% 89 30.05 0.0
14 23:35 Vrbl 3 10.00 Fair CLR 81.5 75.2 81% 88 30.05 0.0
14 23:15 Calm 10.00 Fair CLR 81.7 75.2 81% 88 30.05 0.0
14 22:55 Calm 10.00 Fair CLR 81.9 75.6 81% 89 30.05 0.0
14 22:35 Calm 10.00 Fair CLR 81.1 75.7 84% 88 30.05 0.0
14 22:15 Vrbl 3 10.00 Fair CLR 80.2 76.1 87% 86 30.06 0.0
14 21:55 Calm 10.00 Fair CLR 80.8 76.1 86% 87 30.05 0.0
14 21:35 Calm 10.00 Fair CLR 80.4 76.1 87% 86 30.06 0.0
14 21:15 Calm 10.00 Fair CLR 80.8 76.1 86% 87 30.05 0.0
14 20:55 Calm 9.00 Fair CLR 81.5 76.1 84% 88 30.05 0.0
14 20:35 Calm 10.00 Fair CLR 82.9 75.7 79% 91 30.05 0.0
14 20:15 Vrbl 3 9.00 Fair CLR 84.7 75.4 74% 93 30.04 0.0
14 19:55 Vrbl 5 10.00 Fair CLR 86 75.7 72% 96 30.04 0.0
14 19:35 Calm 10.00 Fair CLR 86.7 75.6 69% 97 30.04 0.0
14 19:15 Calm 10.00 Fair CLR 87.6 75.2 67% 97 30.04 0.0
14 18:55 Calm 10.00 Fair CLR 89.1 75 91.6 87.8 63% 99 30.04 0.0
14 18:35 Vrbl 3 10.00 Fair CLR 89.8 74.3 60% 99 30.04 0.0
14 18:15 W 5 10.00 Fair CLR 89.2 73.8 60% 98 30.05 0.0
14 17:55 W 6 10.00 Fair CLR 90.3 73.9 59% 100 30.05 0.0
14 17:35 SW 5 10.00 Fair CLR 91 73.9 57% 101 30.05 0.0
14 17:15 Vrbl 5 10.00 A Few Clouds FEW044 90.1 73.9 59% 99 30.05 0.0
14 16:55 Vrbl 5 10.00 Fair CLR 90.9 73.2 56% 100 30.05 0.0
14 16:35 SW 5 10.00 Fair CLR 91 74.1 58% 101 30.06 0.0
14 16:15 SW 3 10.00 Fair CLR 90.3 74.1 59% 100 30.06 0.0
14 15:55 Vrbl 6 10.00 A Few Clouds FEW043 90.9 75.4 61% 102 30.07 0.0
14 15:35 Calm 10.00 A Few Clouds FEW042 90.5 75.9 62% 102 30.07 0.0
14 15:15 Vrbl 3 10.00 A Few Clouds FEW042 88.5 75.2 65% 99 30.08 0.0
14 14:55 Vrbl 3 10.00 A Few Clouds FEW330 90.9 74.7 59% 101 30.09 0.0
14 14:35 W 6 10.00 A Few Clouds FEW041 89.4 73.4 59% 98 30.09 0.0
14 14:15 Vrbl 3 10.00 A Few Clouds FEW300 88.7 73.4 61% 97 30.1 0.0
14 13:55 Vrbl 3 10.00 Partly Cloudy SCT039 SCT300 88.3 74.1 63% 97 30.11 0.0
14 13:35 Calm 10.00 A Few Clouds FEW040 88.3 74.1 63% 97 30.11 0.0
14 13:15 W 6 10.00 A Few Clouds FEW370 89.2 74.1 61% 98 30.12 0.0
14 12:55 W 7 10.00 A Few Clouds FEW330 87.8 72.7 88.7 71.8 61% 95 30.13 0.0
14 12:35 Vrbl 5 10.00 Fair CLR 88.3 73.6 62% 97 30.14 0.0
14 12:15 W 6 10.00 Fair CLR 87.3 72.9 62% 95 30.14 0.0
14 11:55 Vrbl 5 10.00 Fair CLR 86.5 74.8 68% 96 30.14 0.0
14 11:35 Calm 10.00 Fair CLR 86 74.7 69% 95 30.15 0.0
14 11:15 W 6 10.00 Fair CLR 85.5 74.5 70% 94 30.15 0.0
14 10:55 W 5 10.00 Fair CLR 84.7 74.8 72% 93 30.16 0.0
14 10:35 Vrbl 7 10.00 Fair CLR 83.8 74.7 74% 91 30.16 0.0
14 10:15 Vrbl 5 10.00 Fair CLR 82.4 74.7 78% 89 30.16 0.0
14 09:55 W 6 10.00 Fair CLR 81.9 74.8 79% 88 30.17 0.0
14 09:35 W 6 10.00 Fair CLR 81 74.5 81% 86 30.17 0.0
14 09:15 W 10 10.00 Fair CLR 80.6 74.3 81% 86 30.17 0.0
14 08:55 W 6 10.00 Fair CLR 78.1 73.8 87% 81 30.18 0.0
14 08:35 SW 6 10.00 Fair CLR 77.5 73.8 88% 79 30.18 0.0
14 08:15 Vrbl 5 10.00 Fair CLR 76.6 73.9 91% 77 30.17 0.0
14 07:55 Vrbl 6 10.00 Fair CLR 75.9 74.3 95% 75 30.17 0.0
14 07:35 SW 5 10.00 Fair CLR 75.2 74.3 97% 73 30.17 0.0
14 07:15 W 5 9.00 Fair CLR 74.1 73.9 99% 30.16 0.0
14 06:55 Calm 8.00 Fair CLR 70.7 70.7 77.5 68.2 100% 30.15 0.0
14 06:35 Calm 8.00 Fair CLR 69.3 69.3 100% 30.16 0.0
14 06:15 Calm 6.00 Fog/Mist CLR 69.1 69.1 100% 30.15 0.0
14 05:55 Calm 5.00 Fog/Mist CLR 68.4 68.4 100% 30.15 0.0
14 05:35 Calm 7.00 Fair CLR 70 70 100% 30.14 0.0
14 05:15 Calm 6.00 Fog/Mist CLR 70.2 70.2 100% 30.14 0.0
14 04:55 Calm 8.00 Fair CLR 70.9 70.9 100% 30.14 0.0
14 04:35 Calm 6.00 Fog/Mist CLR 70.9 70.9 100% 30.13 0.0
14 04:15 Calm 8.00 Fair CLR 71.8 71.8 100% 30.13 0.0
14 03:55 SW 3 8.00 Fair CLR 73 73 100% 30.13 0.0
14 03:35 SW 3 9.00 Fair CLR 73.8 73.8 100% 30.13 0.0
14 03:15 SW 3 9.00 Fair CLR 74.3 74.3 100% 30.14 0.0
14 02:55 W 3 5.00 Fog/Mist CLR 75.4 74.5 97% 74 30.14 0.0
14 02:35 SW 3 10.00 Fair CLR 75.7 74.8 97% 75 30.14 0.0
14 02:15 SW 3 10.00 Fair CLR 75.9 75 97% 75 30.15 0.0
14 01:55 W 6 10.00 Fair CLR 76.5 74.8 95% 77 30.15 0.0
14 01:35 SW 6 10.00 Fair CLR 77.2 75 93% 78 30.15 0.0
14 01:15 W 5 10.00 Fair CLR 77.4 74.8 92% 79 30.15 0.0
14 00:55 Vrbl 5 10.00 Fair CLR 77.9 73.9 88.2 76.6 88% 80 30.16 0.0
14 00:35 Vrbl 3 10.00 Fair CLR 78.1 73.8 87% 81 30.17 0.0
14 00:15 Vrbl 5 10.00 Fair CLR 79 73.6 84% 82 30.17 0.0
13 23:55 Vrbl 3 10.00 Fair CLR 79.5 72.9 80% 83 30.17 0.0
13 23:35 Vrbl 3 10.00 Fair CLR 79.7 72.7 79% 84 30.16 0.0
13 23:15 Calm 10.00 Fair CLR 79.3 73.2 82% 83 30.17 0.0
13 22:55 Calm 10.00 Fair CLR 78.3 72.7 83% 81 30.16 0.0
13 22:35 Calm 10.00 Fair CLR 76.6 72.5 87% 78 30.16 0.0
13 22:15 Calm 10.00 Fair CLR 77.7 72.5 84% 80 30.16 0.0
13 21:55 Calm 10.00 Fair CLR 80.4 72 76% 84 30.15 0.0
13 21:35 Calm 10.00 Fair CLR 80.4 72 76% 84 30.15 0.0
13 21:15 Calm 10.00 Fair CLR 81.3 72 73% 86 30.14 0.0
13 20:55 Calm 10.00 Fair CLR 80.8 72.9 77% 85 30.15 0.0
13 20:35 Calm 10.00 Fair CLR 81.7 72.7 74% 87 30.15 0.0
13 20:15 Calm 10.00 Fair CLR 83.3 72.7 70% 89 30.15 0.0
13 19:55 Calm 10.00 Fair CLR 85.6 71.2 62% 91 30.14 0.0
13 19:35 Calm 10.00 Fair CLR 86.7 70.7 59% 92 30.14 0.0
13 19:15 Calm 10.00 Fair CLR 87.4 70.7 58% 93 30.13 0.0
13 18:55 Calm 10.00 Fair CLR 88.5 71.4 91.8 88 57% 95 30.12 0.0
13 18:35 Vrbl 3 10.00 A Few Clouds FEW055 89.4 70.5 54% 95 30.12 0.0
13 18:15 Vrbl 3 10.00 Partly Cloudy SCT055 90.1 70.7 53% 96 30.12 0.0
13 17:55 Calm 10.00 Partly Cloudy SCT055 91.4 70.5 51% 98 30.13 0.0
13 17:35 Calm 10.00 Partly Cloudy SCT055 91 70 50% 97 30.13 0.0
13 17:15 Calm 10.00 A Few Clouds FEW055 91.2 70.7 51% 98 30.13 0.0
13 16:55 Vrbl 3 10.00 Fair CLR 91 70.7 51% 97 30.14 0.0
13 16:35 Vrbl 3 10.00 A Few Clouds FEW050 91.2 71.4 52% 98 30.14 0.0
13 16:15 Calm 10.00 Mostly Cloudy BKN050 88.2 71.2 57% 94 30.15 0.0
13 15:55 Vrbl 6 10.00 A Few Clouds FEW050 91 69.8 50% 97 30.16 0.0
13 15:35 Calm 10.00 Fair CLR 90.9 70 50% 96 30.16 0.0
13 15:15 Vrbl 3 10.00 A Few Clouds FEW055 91.4 70.2 50% 97 30.17 0.0
13 14:55 Calm 10.00 A Few Clouds FEW055 89.2 68.7 51% 94 30.18 0.0
13 14:35 SE 3 10.00 A Few Clouds FEW050 90.9 69.8 50% 96 30.19 0.0
13 14:15 Calm 10.00 A Few Clouds FEW370 89.8 69.1 51% 94 30.19 0.0
13 13:55 Vrbl 3 10.00 A Few Clouds FEW048 90.1 70.7 53% 96 30.19 0.0
13 13:35 Calm 10.00 Partly Cloudy FEW047 SCT330 89.1 70.7 55% 95 30.2 0.0
13 13:15 W 9 10.00 Fair CLR 89.6 70.2 53% 95 30.2 0.0
13 12:55 W 6 10.00 A Few Clouds FEW350 88.7 70.3 88.7 73.6 55% 94 30.2 0.0
13 12:35 W 5 10.00 A Few Clouds FEW360 88.5 69.8 54% 94 30.21 0.0
13 12:15 W 7 10.00 Fair CLR 87.8 70 56% 93 30.21 0.0
13 11:55 W 6 10.00 Fair CLR 87.3 70.9 58% 93 30.21 0.0
13 11:35 W 7 10.00 Fair CLR 86.2 70.7 60% 91 30.21 0.0
13 11:15 W 7 10.00 Fair CLR 86.4 71.8 62% 93 30.21 0.0
13 10:55 SW 5 10.00 A Few Clouds FEW030 85.5 73.8 68% 93 30.21 0.0
13 10:35 W 8 10.00 Fair CLR 84.4 73.6 70% 91 30.21 0.0
13 10:15 Vrbl 7 10.00 Fair CLR 83.8 73.4 71% 90 30.21 0.0
13 09:55 W 8 10.00 Fair CLR 82.6 73.6 74% 89 30.21 0.0
13 09:35 W 7 10.00 Fair CLR 82.6 73.8 75% 89 30.21 0.0
13 09:15 Vrbl 5 10.00 Fair CLR 81 74.7 81% 87 30.2 0.0
13 08:55 W 6 10.00 A Few Clouds FEW013 79.9 76.3 89% 85 30.2 0.0
13 08:35 W 6 10.00 Partly Cloudy SCT013 79.5 76.3 90% 84 30.2 0.0
13 08:15 W 3 10.00 A Few Clouds FEW012 78.4 75.7 91% 82 30.19 0.0
13 07:55 W 3 10.00 Fair CLR 77.4 75.2 93% 79 30.19 0.0
13 07:35 W 3 10.00 Fair CLR 76.6 75 95% 77 30.19 0.0
13 07:15 Calm 10.00 Fair CLR 75 74.7 99% 72 30.18 0.0
13 06:55 SW 3 9.00 Fair CLR 73.4 73.4 77.7 70 100% 30.18 0.0
13 06:35 Calm 9.00 Fair CLR 73.2 73.2 100% 30.18 0.0
13 06:15 SW 3 10.00 Fair CLR 73.6 73.6 100% 30.18 0.0
13 05:55 Calm 10.00 Fair CLR 73.8 73.8 100% 30.17 0.0
13 05:35 Calm 10.00 Fair CLR 74.3 73.9 99% 30.17 0.0
13 05:15 SW 3 10.00 Fair CLR 74.3 73.6 98% 30.16 0.0
13 04:55 SW 3 10.00 Fair CLR 75.6 73 92% 75 30.16 0.0
13 04:35 SW 3 10.00 Fair CLR 75.9 72.9 90% 76 30.15 0.0
13 04:15 Calm 10.00 Fair CLR 75.7 73.2 92% 75 30.14 0.0
13 03:55 Vrbl 3 9.00 Fair CLR 76.3 73.6 91% 76 30.14 0.0
13 03:35 Vrbl 3 10.00 Fair CLR 76.8 73.9 91% 78 30.14 0.0
13 03:15 Vrbl 3 10.00 Fair CLR 76.8 73.9 91% 78 30.14 0.0
13 02:55 Calm 10.00 Fair CLR 77.7 73 86% 80 30.13 0.0
13 02:35 Calm 10.00 Fair CLR 77.5 72.7 85% 79 30.13 0.0
13 02:15 Calm 10.00 Fair CLR 77.7 72.1 83% 80 30.14 0.0
13 01:55 Calm 10.00 Fair CLR 72.5 71.1 95% 30.14 0.0
13 01:35 Calm 8.00 Fair CLR 70.7 70.5 99% 30.14 0.0
13 01:15 Calm 10.00 Fair CLR 70.9 70.9 100% 30.14 0.0
13 00:55 Calm 10.00 Fair CLR 71.4 71.1 87.6 70.9 99% 30.14 0.0
13 00:35 Calm 10.00 Fair CLR 71.8 70.9 97% 30.14 0.0
13 00:15 Calm 10.00 Fair CLR 71.8 71.4 99% 30.14 0.0
12 23:55 Calm 10.00 Fair CLR 71.6 71.2 99% 30.14 0.0
12 23:35 Calm 10.00 Fair CLR 71.8 71.4 99% 30.13 0.0
12 23:15 Calm 10.00 Fair CLR 72.7 71.1 95% 30.12 0.0
12 22:55 Calm 10.00 Fair CLR 73.2 71.2 94% 30.12 0.0
12 22:35 Calm 10.00 Fair CLR 72.7 71.4 96% 30.11 0.0
12 22:15 Calm 10.00 Fair CLR 74.3 71.1 90% 30.11 0.0
12 21:55 Calm 10.00 Fair CLR 74.5 71.4 90% 30.11 0.0
12 21:35 Calm 10.00 Fair CLR 75.2 70.9 87% 75 30.1 0.0
12 21:15 Calm 10.00 Fair CLR 76.3 70.7 83% 77 30.1 0.0
12 20:55 Calm 10.00 Fair CLR 77.7 71.2 81% 80 30.1 0.0
12 20:35 Calm 10.00 Fair CLR 78.6 72.1 81% 81 30.1 0.0
12 20:15 Calm 10.00 Fair CLR 81 73.2 77% 86 30.1 0.0
Date Time (cdt) Wind (mph) Vis. (mi.) Weather Sky Cond. Air Dwpt Max. Min. Relative Humidity Wind Chill (°F) Heat Index (°F) altimeter (in) sea level (mb) 1 hr 3 hr 6 hr
6 hour
Temperature (ºF) Pressure Precipitation (in)